User: anonymous   Login
Location: Oshawa
(43.9000°N, 78.8670°W)
Time: 08:58:07
(UTC-05:00)
Language:

Thor Agena Rocket - Orbit

View from above orbital plane
View from above orbital plane
View from above satellite
View from above satellite

Ground track
Ground track

The orbit data is extracted from the following two-line orbital elements,

1 00733U 64002A   17020.06231925  .00000020  00000-0  25289-4 0  9995
2 00733  99.1168 197.8381 0033067 248.1806 111.5856 14.32253470761107
Epoch (UTC): 20 January 2017 01:29:44
Eccentricity: 0.0033067
inclination: 99.1168°
perigee height: 760 km
apogee height: 808 km
right ascension of ascending node: 197.8381°
argument of perigee: 248.1806°
revolutions per day: 14.32253470
mean anomaly at epoch: 111.5856°
orbit number at epoch: 76110

The dashed part of the orbit path shows where the satellite is in the earth's shadow,  

DLR